Weather History for PAMC - November, 2012

Change the Weather History Date:

Tuesday, November 27, 2012

  Actual Average Record
Temperature  
Mean Temperature -19 °F -  
Max Temperature -12 °F - 40 °F (1956)
Min Temperature -26 °F -7 °F -43 °F (1974)
Degree Days  
Heating Degree Days 84 64  
Month to date heating degree days 1732 1590  
Since 1 July heating degree days 4136 3938  
Cooling Degree Days 0    
Month to date cooling degree days 0  
Year to date cooling degree days 4 16  
Moisture  
Dew Point -28 °F    
Average Humidity 0    
Maximum Humidity 0    
Minimum Humidity 0    
Precipitation  
Precipitation 0.00 in 0.04 in 0.69 in (1954)
Month to date precipitation 0.95 1.28  
Year to date precipitation 21.45 16.58  
Snow  
Snow 0.00 in 0.60 in 6.90 in (1954)
Month to date snowfall 10.4 17.4  
Since 1 July snowfall 12.7 29.1  
Since 1 September snowfall 12.7 29.1  
Snow Depth 9.00 in    
Sea Level Pressure  
Sea Level Pressure 30.29 in    
Wind  
Wind Speed 0 mph (North)    
Max Wind Speed 5 mph    
Max Gust Speed 5 mph    
Visibility 10 miles    
Events      
T = Trace of Precipitation, MM = Missing Value Source: NWS Daily Summary

Daily Weather History Graph

Daily Weather History Graph

Search for Another Location

Airport or City:

Trip Planner

Search our weather history database for the weather conditions in past years. The results will help you decide how hot, cold, wet, or windy it might be!

Date:

Astronomy

Nov. 27, 2012 Rise Set
Actual Time 10:17 AM AKST 4:02 PM AKST
Civil Twilight 9:14 AM AKST 5:05 PM AKST
Nautical Twilight 8:13 AM AKST 6:06 PM AKST
Astronomical Twilight 7:17 AM AKST 7:02 PM AKST
Moon 3:46 PM AKST (11/27) 9:25 AM AKST (11/27)
Length of Visible Light 7h 50m
Length of Day
5h 44m
Full, 100% of the Moon is Illuminated
Nov 27
Full
Nov 28
Full
Dec 6
Last Quarter
Dec 12
New
Dec 19
First Quarter

Hourly Weather History & Observations

Time (AKST) Temp. Windchill Dew Point Humidity Pressure Visibility Wind Dir Wind Speed Gust Speed Precip Events Conditions
12:53 AM -24.0 °F - -31.0 °F 70% 30.27 in 10.0 mi Calm Calm - N/A   Clear
1:53 AM -25.1 °F - -32.1 °F 70% 30.26 in 10.0 mi Calm Calm - N/A   Clear
2:53 AM -26.0 °F - -32.1 °F 73% 30.25 in 10.0 mi Calm Calm - N/A   Clear
3:53 AM -25.1 °F - -32.1 °F 70% 30.25 in 10.0 mi Calm Calm - N/A   Clear
4:53 AM -25.1 °F - -32.1 °F 70% 30.25 in 10.0 mi Calm Calm - N/A   Clear
5:53 AM -25.1 °F - -31.0 °F 74% 30.24 in 10.0 mi Calm Calm - N/A   Clear
6:53 AM -25.1 °F - -31.0 °F 74% 30.25 in 10.0 mi Calm Calm - N/A   Clear
7:53 AM -25.1 °F - -31.0 °F 74% 30.26 in 10.0 mi Calm Calm - N/A   Clear
8:53 AM -25.1 °F - -31.0 °F 74% 30.26 in 10.0 mi Calm Calm - N/A   Clear
9:53 AM -24.0 °F - -31.0 °F 70% 30.27 in 8.0 mi Calm Calm - N/A   Clear
10:53 AM -24.0 °F - -31.0 °F 70% 30.29 in 10.0 mi Calm Calm - N/A   Clear
11:53 AM -20.0 °F - -27.0 °F 70% 30.31 in 10.0 mi Calm Calm - N/A   Clear
12:53 PM -16.1 °F - -23.1 °F 71% 30.31 in 10.0 mi Calm Calm - N/A   Clear
1:53 PM -14.1 °F - -22.0 °F 68% 30.31 in 8.0 mi Calm Calm - N/A   Clear
2:53 PM -13.0 °F - -20.0 °F 71% 30.31 in 10.0 mi Calm Calm - N/A   Clear
3:53 PM -15.0 °F - -22.0 °F 71% 30.30 in 10.0 mi Calm Calm - N/A   Clear
4:53 PM -17.0 °F - -24.0 °F 70% 30.32 in 10.0 mi Calm Calm - N/A   Clear
5:53 PM -18.9 °F - -26.0 °F 70% 30.33 in 10.0 mi Calm Calm - N/A   Clear
6:53 PM -20.0 °F - -26.0 °F 74% 30.33 in 10.0 mi Calm Calm - N/A   Clear
7:53 PM -20.0 °F - -25.1 °F 78% 30.34 in 10.0 mi Calm Calm - N/A   Clear
8:53 PM -20.0 °F - -27.0 °F 70% 30.35 in 10.0 mi Calm Calm - N/A   Clear
9:53 PM -20.9 °F - -27.0 °F 73% 30.35 in 10.0 mi Calm Calm - N/A   Clear
10:53 PM -22.0 °F -33.0 °F -27.9 °F 74% 30.34 in 10.0 mi North 3.5 mph - N/A   Clear
11:53 PM -22.0 °F - -27.9 °F 74% 30.34 in 10.0 mi Calm Calm - N/A   Clear